sat.trackr.live / text

‹ back to catalog

STARLINK-35980

NORAD 66600 · 2025-270N

PAYLOAD ACTIVE UNKNOWN

§ Identity

Operator
Country
US
Launch date
2025-11-22
Launch site
AFETR
Launch vehicle
Mass (kg)
RCS (m²)

Purposes: comms

External: N2YO · Heavens-Above · Gunter

§ Orbital elements

Epoch: 2026-09-20T08:28:15.109824Z

Period
94.27 min
Inclination
43.0021°
Eccentricity
0.0001738
Mean motion
15.27580838 rev/d
Perigee alt
481.9 km
Apogee alt
484.2 km
Semi-major
6,861.2 km
B*
3.6886e-4
RAAN
37.1201°
Arg perigee
269.7815°
Mean anomaly
90.2837°
Rev number
4,737

§ Raw data

STARLINK-359801 66600U 25270N   26263.35295266  .00009902  00000+0  36886-3 0  99942 66600  43.0021  37.1201 0001738 269.7815  90.2837 15.27580838 47378

JSON: /api/v1/satellites/66600 · /tle

For live sub-satellite position, see the globe view (requires WebGL).

§ Visibility from observer

Set your observer location to see the next 7 days of passes ≥ 10°. The values pass through the URL so the page stays shareable.

No JS? Fill the form by hand. The geolocation button needs JavaScript.